Temperature
13 13 13 13 12 12 12 12 12 12 12 11 11 11 11 11 11 11 11 11 11 10 10 10 10 9 9 9 9 9 9 8 8 8 8 8 8 8 8 8 8 8 8
13 12 12 12 12 12 12 12 11 11 11 11 11 11 11 11 11 10 10 10 10 10 10 10 9 9 9 9 9 8 8 8 8 8 8 8 8 8 8 7 7 7 7
12 12 12 12 12 12 11 11 11 11 11 11 11 11 11 10 10 10 10 10 10 10 10 9 9 9 9 8 8 8 8 8 8 8 8 8 8 7 7 7 7 7 7
12 12 12 12 12 11 11 11 11 11 11 10 10 10 10 10 10 10 10 9 9 9 9 9 9 9 9 9 8 8 8 8 7 8 7 7 7 7 7 7 7 7 7
11 11 11 11 11 11 11 11 10 10 10 10 10 10 10 10 10 9 9 9 9 9 9 9 9 9 9 8 8 8 7 7 7 7 7 7 7 7 7 7 7 7 7
11 11 11 11 11 11 10 10 10 10 10 10 10 10 9 9 9 9 9 9 9 9 9 9 9 8 8 8 8 8 7 7 7 7 7 7 7 7 7 7 6 6 6
11 11 11 10 10 10 10 10 10 10 10 9 9 9 9 9 9 9 9 9 9 9 8 8 8 8 8 8 8 8 7 7 7 7 6 6 6 6 6 6 6 6 6
10 10 10 10 10 10 10 10 9 9 9 9 9 8 8 8 9 9 9 8 8 8 8 8 8 8 8 8 8 8 7 7 7 6 6 6 6 6 6 6 6 6 6
9 10 10 10 10 10 9 9 9 9 9 9 8 8 8 8 7 8 8 8 8 8 8 8 8 8 7 7 7 7 7 7 6 6 6 6 6 6 5 6 5 5 5
9 9 9 9 9 9 9 9 9 9 8 8 8 8 8 8 7 7 7 8 8 7 7 7 7 7 7 7 7 7 7 6 6 6 6 6 5 5 5 5 5 5 5
9 9 9 9 9 9 9 9 8 8 8 8 7 7 7 7 7 6 6 7 7 7 7 7 7 7 7 6 6 6 6 6 6 5 5 5 5 5 5 5 5 4 4
8 8 8 8 8 8 8 8 8 8 7 7 7 7 7 6 6 6 6 6 6 7 7 6 6 6 6 6 6 6 6 5 5 5 5 5 5 5 5 4 4 4 4
8 8 8 8 8 7 8 8 7 7 7 7 7 6 6 6 6 6 6 5 5 6 6 6 6 6 6 6 5 5 5 5 5 5 5 5 4 4 4 4 4 4 4
7 7 7 7 7 7 7 7 7 7 7 6 6 6 6 6 5 5 5 5 4 5 5 5 5 5 5 5 5 5 5 5 5 4 4 4 4 4 4 4 3 3 3
7 7 7 6 7 6 6 6 6 6 6 6 6 5 5 5 5 5 5 4 4 4 4 5 5 5 4 5 5 5 5 4 4 4 4 4 4 3 3 3 3 3 3
6 6 6 6 6 6 6 6 6 6 5 5 5 5 5 5 5 4 4 4 4 4 3 4 4 4 4 4 4 4 4 4 4 4 4 3 3 3 3 3 3 2 3
5 6 6 5 5 5 5 5 5 5 5 5 5 5 4 4 4 4 4 4 4 3 3 3 4 4 4 4 4 4 4 4 3 3 3 3 3 3 3 2 2 2 2
5 5 5 5 5 5 5 5 5 4 4 4 4 4 4 4 3 3 3 3 3 3 3 3 3 3 3 3 3 3 3 3 3 3 3 3 3 3 2 2 2 2 2
4 4 4 4 4 4 4 4 4 4 4 4 4 4 3 3 3 3 3 3 3 3 3 2 2 2 3 3 3 3 3 3 3 2 2 2 2 2 2 2 2 2 1
4 4 4 4 4 3 3 3 3 3 3 3 3 3 3 3 3 2 2 2 2 2 2 2 2 2 2 2 2 2 2 2 2 2 2 2 2 2 2 1 1 1 1
3 3 3 3 3 3 3 3 3 3 3 2 2 2 2 2 2 2 2 2 2 2 2 1 1 1 2 2 2 2 1 1 1 1 1 1 1 1 1 1 1 0 0
2 2 2 2 2 2 2 2 2 2 2 2 2 2 2 2 2 2 2 2 2 2 1 1 1 1 1 1 1 1 1 1 0 1 0 0 0 0 0 0 0 -0 -0
1 1 2 2 2 2 2 2 2 2 1 1 1 1 1 1 1 1 1 1 1 1 1 1 1 1 1 1 1 0 0 0 -0 0 0 0 -0 -0 -0 -0 -0 -0 -0
1 1 1 1 1 1 1 1 1 1 1 1 1 1 1 1 1 1 1 1 1 1 1 0 0 1 0 0 0 -0 -0 -0 -0 -0 -0 -1 -0 -0 -0 -1 -1 -1 -1
0 1 1 0 1 1 1 1 1 0 1 0 0 0 0 0 0 0 0 0 0 0 0 0 0 0 0 0 -0 -0 -0 -1 -1 -1 -1 -1 -1 -1 -0 -0 -1 -1 -1
-0 -0 -0 -0 -0 0 0 0 -0 -0 -0 -0 -0 -0 -0 -0 -0 -0 -0 -0 -0 -0 -0 -0 -0 -0 -0 -0 -0 -0 -1 -1 -1 -1 -1 -1 -1 -2 -2 -1 -1 -1 -1
Wind_Speed
4 4 5 5 4 4 4 4 4 4 4 3 3 2 2 2 2 2 2 1 2 2 2 2 2 2 2 3 3 4 5 6 7 8 8 9 10 10 11 12 13 13 14
4 4 5 4 4 4 4 4 4 3 3 3 3 3 2 2 2 2 2 2 1 1 2 3 3 3 3 3 4 5 6 7 7 8 9 9 10 11 12 12 13 14 14
5 4 4 4 4 4 5 4 4 3 3 3 3 3 3 3 3 3 2 2 2 1 1 3 3 3 4 4 5 5 6 7 8 8 9 10 11 11 12 13 13 14 15
6 4 3 4 4 5 4 3 3 3 3 3 3 3 3 3 4 3 3 3 2 2 1 2 3 4 4 5 5 6 7 8 8 9 10 10 11 12 13 13 14 14 15
7 5 3 4 5 4 4 3 3 3 3 3 3 3 3 3 4 4 4 4 3 3 3 2 3 4 5 6 7 7 8 8 9 9 10 11 12 12 13 14 14 15 15
6 5 4 4 4 3 3 4 4 3 3 3 3 3 3 4 4 4 5 4 4 5 5 5 4 4 5 6 7 8 9 10 10 10 11 12 13 13 14 14 14 15 15
5 5 4 3 4 4 4 4 3 4 2 2 2 2 3 5 5 4 5 5 5 6 6 6 5 5 5 5 6 8 10 11 11 11 12 12 13 14 14 14 15 15 16
5 4 4 4 4 4 4 4 3 3 2 2 2 2 3 4 5 5 5 5 6 5 6 7 6 6 6 5 5 7 10 12 12 12 12 13 14 14 15 15 15 15 16
4 4 4 4 4 5 4 4 4 3 3 3 3 2 3 3 2 4 5 5 5 5 6 6 6 6 6 6 6 6 10 12 13 13 13 13 14 15 15 15 15 16 16
4 4 4 3 4 4 4 4 4 3 3 3 3 3 3 2 3 3 3 4 5 6 6 5 6 6 6 6 6 7 9 12 13 13 14 14 14 15 15 16 16 16 16
3 3 3 4 3 3 4 4 4 3 3 4 3 3 3 3 4 4 4 4 4 5 5 5 5 5 5 6 6 8 9 11 12 13 14 14 14 15 16 16 16 16 17
3 3 3 3 3 3 4 4 4 4 4 3 3 3 3 3 3 4 5 5 5 4 5 4 5 5 5 6 6 8 10 10 11 12 13 13 14 14 15 16 15 16 17
3 4 3 3 3 3 3 3 4 4 4 4 4 3 3 4 3 3 5 5 5 4 4 4 4 4 5 6 7 9 10 10 11 11 12 12 13 13 14 15 15 16 16
4 4 4 4 4 4 3 4 3 4 4 4 4 4 3 4 4 3 4 4 5 4 4 4 3 4 5 6 7 8 8 9 11 11 11 11 12 12 13 14 15 16 16
4 4 4 4 4 4 4 4 3 4 4 4 4 4 4 3 4 4 4 4 4 5 5 4 3 3 5 6 7 8 8 9 10 10 10 10 11 11 12 13 14 15 15
4 4 4 4 4 4 4 4 4 4 4 4 4 4 4 3 3 3 4 4 4 5 5 3 4 4 5 5 7 8 8 8 9 9 9 10 10 11 12 13 14 14 15
4 4 4 4 4 4 4 4 4 4 4 4 4 4 4 4 3 3 3 3 4 5 6 5 4 5 6 6 6 6 7 6 7 8 9 10 10 11 12 12 13 14 14
4 4 4 5 5 5 5 5 5 5 5 5 5 4 4 3 4 3 3 4 4 5 5 6 5 5 6 6 6 6 5 6 6 7 9 10 11 11 11 12 13 13 14
4 4 5 5 5 5 5 5 4 4 5 5 4 4 4 4 4 3 3 4 4 4 4 4 5 4 5 5 6 5 5 5 6 7 8 9 9 10 11 11 12 13 13
4 4 4 5 4 4 4 4 4 4 4 4 4 4 4 5 5 4 4 4 4 4 3 4 4 4 4 4 5 5 5 5 5 6 7 7 8 9 10 11 12 12 13
2 2 3 4 4 4 4 4 3 4 4 4 3 3 3 4 4 4 3 3 3 3 3 3 4 4 4 4 4 4 5 5 5 5 6 6 6 6 7 9 10 12 13
1 1 2 3 3 3 3 4 4 3 3 3 3 2 2 2 2 3 3 3 3 3 3 3 3 4 4 4 4 4 5 5 4 4 6 6 6 6 6 7 11 13 14
1 1 2 2 2 2 3 3 4 3 3 3 3 3 2 2 2 2 2 2 2 3 3 4 4 4 4 5 4 4 4 5 5 5 6 6 6 6 6 7 11 13 14
1 1 1 1 1 2 2 2 2 2 2 3 3 3 3 2 2 2 1 2 2 2 3 3 3 3 4 4 4 4 5 5 5 4 4 4 6 6 7 7 9 11 13
1 0 1 1 1 2 2 2 2 2 2 2 2 2 3 2 3 2 2 2 2 2 2 3 3 3 4 4 4 2 3 3 4 4 4 3 4 7 6 5 7 10 12
1 0 0 1 1 1 2 2 2 1 2 1 1 1 2 3 3 3 2 2 2 2 2 2 3 3 3 2 3 2 2 3 3 3 3 3 4 5 4 4 6 8 9
Wind_Direction
172 177 169 168 173 171 175 177 173 170 175 175 181 189 187 185 185 178 144 70 349 331 319 300 305 320 321 320 327 331 333 335 332 332 330 329 328 326 324 323 321 321 320
177 182 176 174 176 182 183 187 183 185 191 192 200 204 209 210 213 209 203 176 115 327 320 300 292 298 300 307 317 322 325 325 323 323 324 324 323 322 321 320 319 319 318
181 185 187 180 180 183 183 182 181 191 201 201 210 215 219 223 223 227 231 235 220 222 313 301 293 294 296 304 308 311 315 318 321 322 321 320 318 317 318 317 316 316 316
184 182 192 186 182 185 184 185 192 196 203 211 219 223 224 224 231 233 234 241 246 255 278 317 303 299 299 303 309 308 309 312 313 315 316 317 316 315 315 314 315 315 314
191 186 192 189 181 187 192 194 197 206 212 218 225 230 232 234 235 235 238 242 245 252 261 288 290 302 306 305 305 310 310 306 308 310 312 313 314 313 313 313 314 315 314
195 193 190 189 181 186 197 201 196 205 214 219 227 236 239 238 237 241 243 244 244 246 255 266 269 270 287 295 304 309 311 307 304 307 309 310 311 312 313 312 312 313 313
191 197 194 191 187 192 204 205 195 196 209 201 219 245 244 239 239 243 243 248 249 249 251 257 266 270 271 272 290 306 309 309 305 305 307 309 310 311 312 311 311 311 312
195 193 198 196 193 193 200 206 203 205 218 210 229 245 251 236 233 237 240 250 257 252 249 254 263 267 273 273 289 302 310 308 307 304 306 308 309 309 310 310 311 312 312
204 196 199 199 197 193 202 209 212 217 220 220 232 240 250 256 264 226 234 241 253 259 254 254 260 265 267 271 280 295 308 308 307 307 306 307 308 308 308 310 312 313 313
210 205 199 197 205 200 200 208 216 222 219 225 225 246 265 291 268 264 233 238 252 256 259 258 255 257 263 269 279 297 307 307 307 308 309 310 309 310 313 313 312 312 313
215 208 206 201 204 207 201 204 208 216 224 229 227 233 248 260 266 269 272 267 260 253 261 264 256 255 258 266 279 298 303 303 305 307 309 310 311 312 315 314 312 312 313
216 212 214 213 211 214 207 204 205 210 223 229 232 229 237 244 249 257 266 279 280 270 267 265 265 261 263 268 278 295 294 298 301 305 308 310 312 312 315 314 314 314 314
222 218 212 215 217 218 214 207 209 212 218 219 227 235 236 245 252 258 266 274 282 280 266 260 264 270 274 274 282 289 285 291 297 302 305 308 311 312 316 317 315 314 315
223 217 212 212 212 212 211 207 210 219 217 219 227 235 242 246 248 253 259 268 282 277 264 263 268 273 283 284 286 286 285 288 292 298 302 305 309 312 316 318 318 316 316
217 210 213 213 212 211 209 208 213 223 223 223 226 232 243 251 246 246 252 253 258 274 275 267 277 287 300 297 299 289 288 290 290 295 300 304 309 314 315 317 317 317 317
215 205 212 214 214 213 212 209 214 221 228 227 227 230 239 249 258 251 251 256 257 263 272 283 288 302 309 305 310 303 293 288 283 292 299 303 309 314 315 317 317 318 319
214 207 207 213 216 216 214 212 214 220 224 229 222 224 234 244 254 258 254 256 255 256 265 283 293 306 308 310 318 311 308 298 292 294 300 303 309 313 315 317 320 321 320
217 210 206 212 218 219 217 215 216 222 228 232 233 228 232 236 244 254 254 257 260 260 264 280 296 307 309 312 316 314 319 316 313 312 307 305 307 312 317 320 322 325 326
215 210 208 213 216 218 217 221 223 223 230 234 239 239 235 234 243 254 261 265 267 269 269 276 292 305 309 318 315 319 325 324 324 323 319 316 317 316 320 323 327 329 329
209 211 215 217 214 212 212 219 226 231 233 237 242 247 250 241 244 254 258 266 276 270 269 272 287 301 313 322 317 324 327 329 330 329 326 326 330 328 329 329 332 333 333
217 213 212 213 208 210 212 210 221 232 233 233 238 248 259 254 252 255 259 268 270 272 271 274 287 307 318 327 321 324 319 324 325 331 328 329 332 331 333 337 339 338 336
220 201 202 199 199 206 201 211 219 223 229 223 225 233 246 263 268 263 276 287 284 272 275 278 285 292 304 312 317 320 320 324 322 333 328 325 330 329 336 342 344 342 341
223 203 194 189 208 211 206 218 226 226 222 225 221 223 238 248 271 257 260 282 304 316 297 282 281 291 299 307 311 313 315 315 310 320 323 316 327 330 335 340 341 340 342
242 206 191 198 221 231 216 211 219 223 227 228 225 220 226 240 255 278 270 282 301 311 311 299 288 297 306 312 302 300 307 315 321 323 327 311 326 330 329 331 342 343 345
262 239 222 212 220 231 217 224 235 215 225 228 233 225 223 233 246 264 267 266 294 317 330 320 327 328 327 330 333 326 328 325 323 325 341 327 326 327 321 326 343 346 346
237 236 248 247 239 234 217 231 251 224 223 230 227 234 233 241 245 255 267 263 265 294 313 325 335 340 338 348 348 332 316 311 318 317 346 337 325 334 324 322 335 341 343
Height
1525 1526 1527 1528 1529 1530 1530 1530 1530 1530 1530 1530 1530 1529 1529 1528 1527 1527 1526 1525 1525 1524 1522 1522 1521 1519 1518 1517 1516 1515 1513 1512 1510 1508 1507 1505 1503 1501 1499 1497 1495 1493 1491
1523 1524 1525 1526 1527 1528 1528 1528 1529 1529 1529 1528 1528 1527 1527 1526 1525 1525 1524 1523 1522 1521 1520 1519 1518 1517 1516 1515 1514 1512 1511 1510 1508 1506 1504 1503 1501 1499 1496 1494 1492 1490 1487
1521 1522 1523 1524 1524 1525 1526 1526 1527 1527 1526 1526 1526 1525 1525 1524 1523 1522 1522 1521 1520 1518 1517 1516 1516 1515 1514 1512 1511 1510 1509 1507 1506 1504 1502 1500 1498 1496 1494 1491 1489 1487 1484
1518 1519 1520 1521 1522 1523 1524 1524 1524 1524 1524 1524 1524 1523 1522 1521 1521 1520 1519 1518 1517 1516 1515 1514 1513 1512 1511 1510 1508 1507 1506 1504 1503 1501 1499 1497 1495 1493 1490 1488 1486 1483 1481
1516 1516 1517 1519 1519 1520 1521 1521 1521 1522 1522 1521 1521 1520 1519 1519 1518 1517 1516 1515 1514 1513 1512 1511 1509 1509 1508 1507 1505 1504 1503 1501 1500 1498 1496 1494 1492 1490 1487 1485 1482 1480 1477
1513 1514 1515 1516 1516 1517 1518 1519 1519 1519 1519 1519 1518 1517 1516 1516 1515 1514 1513 1512 1511 1510 1509 1508 1506 1505 1504 1503 1502 1501 1499 1498 1496 1495 1493 1491 1488 1486 1484 1481 1479 1476 1474
1509 1510 1511 1512 1513 1514 1515 1516 1516 1516 1516 1516 1515 1514 1513 1512 1511 1511 1510 1509 1508 1506 1505 1504 1503 1502 1501 1500 1498 1497 1496 1494 1493 1491 1489 1487 1485 1482 1480 1478 1475 1472 1470
1506 1507 1508 1509 1510 1511 1512 1512 1513 1512 1512 1512 1512 1511 1511 1510 1507 1507 1506 1505 1504 1502 1501 1500 1499 1498 1497 1496 1495 1493 1492 1490 1489 1487 1485 1483 1481 1479 1476 1474 1471 1468 1466
1502 1504 1505 1505 1506 1507 1508 1509 1509 1509 1509 1509 1509 1510 1509 1507 1505 1503 1502 1501 1499 1498 1497 1496 1495 1494 1493 1492 1491 1489 1488 1486 1485 1483 1481 1479 1477 1475 1472 1469 1467 1464 1462
1499 1500 1501 1502 1503 1503 1504 1505 1505 1506 1506 1505 1506 1505 1506 1504 1503 1501 1498 1497 1496 1494 1493 1492 1491 1490 1489 1488 1487 1485 1484 1482 1481 1479 1477 1475 1472 1470 1468 1465 1462 1460 1457
1495 1496 1497 1498 1499 1499 1500 1501 1501 1502 1502 1502 1502 1501 1501 1501 1500 1499 1496 1494 1492 1491 1489 1488 1487 1486 1485 1484 1483 1481 1479 1478 1476 1475 1473 1470 1468 1466 1464 1461 1458 1455 1453
1491 1492 1494 1494 1495 1496 1496 1497 1497 1497 1498 1498 1498 1498 1497 1497 1496 1495 1493 1491 1489 1487 1485 1484 1483 1482 1481 1479 1478 1477 1475 1474 1472 1470 1468 1466 1464 1462 1459 1457 1454 1451 1448
1487 1488 1489 1490 1491 1492 1492 1493 1493 1494 1494 1494 1493 1493 1493 1493 1492 1492 1491 1488 1485 1483 1481 1480 1479 1478 1476 1475 1474 1473 1471 1470 1468 1466 1464 1462 1460 1458 1455 1453 1449 1446 1443
1483 1484 1486 1486 1487 1488 1488 1489 1489 1490 1490 1490 1489 1489 1489 1489 1489 1488 1487 1485 1482 1479 1478 1476 1475 1474 1472 1471 1470 1468 1467 1465 1464 1462 1460 1458 1456 1453 1451 1448 1445 1442 1439
1480 1481 1482 1483 1483 1484 1484 1485 1485 1485 1486 1486 1485 1485 1485 1485 1484 1484 1483 1482 1481 1477 1474 1473 1471 1470 1468 1467 1465 1464 1462 1461 1459 1458 1456 1454 1452 1449 1447 1444 1441 1438 1435
1476 1477 1478 1479 1479 1479 1480 1481 1481 1482 1482 1481 1481 1481 1481 1481 1480 1480 1479 1478 1477 1476 1472 1469 1468 1466 1464 1463 1461 1460 1458 1456 1455 1454 1452 1450 1448 1445 1443 1440 1437 1434 1430
1472 1472 1473 1475 1475 1475 1476 1476 1477 1478 1478 1477 1477 1477 1477 1477 1476 1476 1475 1474 1473 1471 1469 1466 1465 1463 1461 1460 1457 1456 1454 1453 1451 1450 1448 1446 1444 1441 1439 1436 1433 1430 1426
1467 1468 1469 1470 1471 1471 1472 1473 1473 1473 1473 1473 1474 1473 1473 1473 1472 1472 1471 1470 1469 1467 1466 1463 1462 1460 1458 1457 1455 1453 1451 1449 1447 1446 1444 1442 1440 1437 1435 1432 1429 1426 1423
1463 1464 1465 1466 1467 1467 1468 1468 1469 1469 1469 1470 1470 1469 1469 1468 1468 1468 1467 1466 1465 1464 1462 1461 1459 1457 1456 1454 1452 1450 1448 1446 1443 1442 1440 1438 1436 1433 1431 1428 1425 1422 1419
1459 1460 1461 1462 1462 1463 1464 1465 1465 1465 1465 1465 1466 1465 1465 1465 1464 1464 1463 1462 1461 1460 1459 1457 1456 1454 1453 1451 1450 1447 1444 1442 1440 1439 1437 1435 1432 1430 1427 1424 1421 1418 1415
1455 1456 1457 1457 1458 1459 1460 1461 1461 1462 1462 1461 1461 1461 1461 1461 1460 1460 1459 1458 1458 1457 1455 1454 1453 1451 1450 1448 1447 1444 1442 1440 1437 1436 1434 1431 1429 1426 1424 1421 1418 1415 1413
1452 1453 1453 1454 1455 1456 1457 1457 1458 1458 1458 1458 1457 1457 1457 1456 1456 1456 1456 1455 1454 1453 1452 1451 1450 1448 1447 1446 1444 1442 1440 1438 1435 1434 1431 1429 1426 1424 1421 1418 1416 1413 1410
1449 1450 1450 1451 1452 1452 1453 1454 1454 1454 1454 1454 1454 1454 1454 1453 1453 1453 1452 1452 1451 1450 1450 1449 1447 1446 1445 1444 1442 1440 1438 1436 1434 1432 1429 1426 1424 1421 1419 1417 1414 1411 1408
1447 1447 1447 1448 1449 1449 1449 1450 1450 1451 1451 1451 1450 1450 1450 1450 1450 1450 1449 1449 1448 1447 1447 1446 1445 1444 1443 1442 1440 1439 1437 1435 1433 1431 1428 1425 1422 1420 1417 1415 1413 1410 1406
1444 1444 1445 1445 1446 1446 1447 1447 1447 1447 1447 1447 1447 1447 1447 1447 1447 1446 1446 1445 1444 1444 1444 1443 1443 1442 1441 1439 1438 1437 1435 1433 1430 1429 1427 1424 1421 1418 1416 1414 1411 1408 1405
1442 1442 1442 1443 1443 1443 1444 1444 1444 1444 1444 1444 1444 1444 1444 1444 1443 1443 1443 1442 1441 1441 1441 1441 1440 1439 1438 1437 1436 1435 1433 1431 1429 1427 1425 1423 1420 1418 1414 1412 1410 1407 1403